Date String (YYYY-MM-DD hh:mm:ss) UTC,Instrument flags,Ambient pressure (hPa),Sample flow (lpm),Bypass flow (lpm),Sample temperature (°C),Ambient temperature (°C),ASC tube jacket temperature (°C),LED temperature (°C),Box temperature (°C),Sample RH (%),Span deviation,Mass concentration (μg/m³),Mass concentration (μg/m³),Mass concentration (μg/m³)
DateTimeUTC,F1_M11,P_M11,Q1_M11,Q2_M11,T1_M11,T2_M11,T3_M11,T4_M11,T5_M11,U1_M11,ZSPAN_M11,X0_M11,X2_M11,X1_M11
2021-11-12 06:00:00,,0829.5,5.00,0.00,24.2,23.4,00.0,33.3,26.0,10.1,0000.0,0007.22,0002.89,0001.85
2021-11-12 06:01:00,,0829.5,5.01,0.00,24.2,23.3,00.0,33.3,25.9,10.1,0000.0,0007.36,0002.86,0001.83
2021-11-12 06:02:00,,0829.4,5.00,0.00,24.2,23.3,00.0,33.3,25.9,10.1,0000.0,0007.46,0002.91,0001.85
2021-11-12 06:03:00,,0829.3,4.99,0.00,24.1,23.3,00.0,33.3,25.9,10.0,0000.0,0007.15,0003.01,0001.87
2021-11-12 06:04:00,,0829.5,5.00,0.00,24.1,23.2,00.0,33.3,25.8,10.0,0000.0,0007.64,0003.01,0001.87
2021-11-12 06:05:00,,0829.6,5.01,0.00,24.1,23.2,00.0,33.2,25.7,10.0,0000.0,0007.96,0003.00,0001.89
2021-11-12 06:06:00,,0829.5,4.99,0.00,24.0,23.2,00.0,33.2,25.6,10.0,0000.0,0008.31,0002.99,0001.88
2021-11-12 06:07:00,,0829.5,5.00,0.00,24.0,23.2,00.0,33.2,25.6,10.0,0000.0,0008.37,0003.00,0001.89
2021-11-12 06:08:00,,0829.3,5.00,0.00,24.0,23.2,00.0,33.2,25.6,10.0,0000.0,0008.23,0002.95,0001.89
2021-11-12 06:09:00,,0829.4,5.01,0.00,24.0,23.1,00.0,33.2,25.6,10.0,0000.0,0008.52,0002.96,0001.87
2021-11-12 06:10:00,,0829.5,4.99,0.00,23.9,23.1,00.0,33.1,25.6,10.0,0000.0,0008.98,0002.93,0001.87
2021-11-12 06:11:00,,0829.6,5.00,0.00,23.9,23.0,00.0,33.1,25.5,10.0,0000.0,0009.12,0002.98,0001.86
2021-11-12 06:12:00,,0829.6,4.99,0.00,23.9,23.0,00.0,33.1,25.5,10.1,0000.0,0009.58,0003.02,0001.85
2021-11-12 06:13:00,,0829.5,5.00,0.00,23.9,23.0,00.0,33.1,25.5,10.1,0000.0,0011.33,0002.99,0001.85
2021-11-12 06:14:00,,0829.5,5.01,0.00,23.9,23.0,00.0,33.1,25.5,10.1,0000.0,0011.72,0002.92,0001.84
2021-11-12 06:15:00,,0829.5,4.99,0.00,23.8,23.0,00.0,33.1,25.5,10.0,0000.0,0011.20,0002.94,0001.85
2021-11-12 06:16:00,,0829.4,5.01,0.00,23.8,23.0,00.0,33.0,25.5,10.0,0000.0,0011.88,0002.96,0001.85
2021-11-12 06:17:00,,0829.3,4.99,0.00,23.8,23.0,00.0,33.0,25.5,10.0,0000.0,0011.25,0002.88,0001.85
2021-11-12 06:18:00,,0829.2,5.00,0.00,23.8,23.0,00.0,33.0,25.5,10.0,0000.0,0012.12,0002.93,0001.85
2021-11-12 06:19:00,,0829.3,5.01,0.00,23.8,23.0,00.0,33.0,25.4,10.1,0000.0,0012.32,0002.95,0001.85
2021-11-12 06:20:00,,0829.4,5.00,0.00,23.7,22.9,00.0,33.0,25.4,10.1,0000.0,0012.11,0002.94,0001.85
2021-11-12 06:21:00,,0829.5,5.01,0.00,23.7,22.9,00.0,32.9,25.4,10.1,0000.0,0011.40,0002.93,0001.85
2021-11-12 06:22:00,,0829.6,5.00,0.00,23.7,22.9,00.0,32.9,25.4,10.1,0000.0,0011.37,0002.88,0001.85
2021-11-12 06:23:00,,0829.6,5.01,0.00,23.7,22.9,00.0,32.9,25.4,10.1,0000.0,0010.88,0002.82,0001.86
2021-11-12 06:24:00,,0829.5,5.01,0.00,23.7,22.9,00.0,32.9,25.4,10.1,0000.0,0009.08,0002.83,0001.87
2021-11-12 06:25:00,,0829.5,5.00,0.00,23.7,22.9,00.0,32.9,25.4,10.1,0000.0,0008.60,0002.90,0001.87
2021-11-12 06:26:00,,0829.5,5.00,0.00,23.7,22.8,00.0,32.8,25.3,10.1,0000.0,0008.57,0002.87,0001.86
2021-11-12 06:27:00,,0829.5,5.01,0.00,23.6,22.8,00.0,32.8,25.3,10.1,0000.0,0007.77,0002.88,0001.84
2021-11-12 06:28:00,,0829.6,5.00,0.00,23.6,22.8,00.0,32.8,25.3,10.1,0000.0,0007.87,0002.94,0001.83
2021-11-12 06:29:00,,0829.6,5.00,0.00,23.6,22.8,00.0,32.8,25.3,10.1,0000.0,0007.12,0002.90,0001.82
2021-11-12 06:30:00,,0829.6,4.99,0.00,23.6,22.8,00.0,32.8,25.3,10.2,0000.0,0007.51,0002.91,0001.79
2021-11-12 06:31:00,,0829.6,5.01,0.00,23.6,22.8,00.0,32.8,25.2,10.2,0000.0,0008.53,0002.88,0001.77
2021-11-12 06:32:00,,0829.6,5.00,0.00,23.6,22.7,00.0,32.7,25.2,10.2,0000.0,0009.10,0002.89,0001.76
2021-11-12 06:33:00,,0829.7,5.00,0.00,23.5,22.7,00.0,32.7,25.2,10.2,0000.0,0008.97,0002.83,0001.73
2021-11-12 06:34:00,,0829.6,5.01,0.00,23.5,22.6,00.0,32.7,25.2,10.3,0000.0,0009.00,0002.82,0001.71
2021-11-12 06:35:00,,0829.7,5.00,0.00,23.5,22.6,00.0,32.7,25.1,10.3,0000.0,0009.53,0002.76,0001.68
2021-11-12 06:36:00,,0829.6,5.01,0.00,23.5,22.6,00.0,32.7,25.1,10.3,0000.0,0009.52,0002.75,0001.66
2021-11-12 06:37:00,,0829.6,5.00,0.00,23.5,22.6,00.0,32.7,25.1,10.3,0000.0,0009.79,0002.71,0001.64
2021-11-12 06:38:00,,0829.6,4.99,0.00,23.4,22.6,00.0,32.6,25.1,10.3,0000.0,0010.25,0002.69,0001.62
2021-11-12 06:39:00,,0829.6,5.00,0.00,23.4,22.6,00.0,32.6,25.1,10.4,0000.0,0011.19,0002.62,0001.61
2021-11-12 06:40:00,,0829.6,5.01,0.00,23.4,22.6,00.0,32.6,25.1,10.4,0000.0,0012.22,0002.65,0001.59
2021-11-12 06:41:00,,0829.6,4.99,0.00,23.4,22.6,00.0,32.6,25.1,10.4,0000.0,0011.85,0002.63,0001.58
2021-11-12 06:42:00,,0829.6,4.99,0.00,23.4,22.5,00.0,32.6,25.1,10.4,0000.0,0011.62,0002.60,0001.58
2021-11-12 06:43:00,,0829.6,5.01,0.00,23.4,22.5,00.0,32.6,25.1,10.4,0000.0,0010.91,0002.55,0001.58
2021-11-12 06:44:00,,0829.6,4.99,0.00,23.4,22.5,00.0,32.5,25.1,10.4,0000.0,0011.16,0002.61,0001.59
2021-11-12 06:45:00,,0829.7,5.01,0.00,23.4,22.5,00.0,32.5,25.1,10.4,0000.0,0011.26,0002.62,0001.60
2021-11-12 06:46:00,,0829.7,5.01,0.00,23.4,22.5,00.0,32.5,25.1,10.4,0000.0,0010.70,0002.64,0001.61
2021-11-12 06:47:00,,0829.7,4.99,0.00,23.4,22.6,00.0,32.5,25.1,10.4,0000.0,0010.71,0002.59,0001.61
2021-11-12 06:48:00,,0829.7,4.99,0.00,23.4,22.6,00.0,32.5,25.2,10.4,0000.0,0011.38,0002.62,0001.61
2021-11-12 06:49:00,,0829.7,5.00,0.00,23.4,22.6,00.0,32.5,25.2,10.4,0000.0,0011.60,0002.62,0001.63
2021-11-12 06:50:00,,0829.6,5.00,0.00,23.4,22.6,00.0,32.5,25.1,10.4,0000.0,0011.27,0002.69,0001.64
2021-11-12 06:51:00,,0829.8,5.00,0.00,23.4,22.5,00.0,32.5,25.1,10.4,0000.0,0010.06,0002.66,0001.65
2021-11-12 06:52:00,,0830.0,4.99,0.00,23.3,22.4,00.0,32.5,25.0,10.5,0000.0,0010.36,0002.68,0001.67
2021-11-12 06:53:00,,0830.0,5.01,0.00,23.3,22.4,00.0,32.5,25.0,10.5,0000.0,0010.71,0002.73,0001.68
2021-11-12 06:54:00,,0829.9,4.99,0.00,23.3,22.3,00.0,32.4,25.0,10.5,0000.0,0010.38,0002.77,0001.70
2021-11-12 06:55:00,,0829.7,5.00,0.00,23.3,22.4,00.0,32.4,25.0,10.5,0000.0,0010.07,0002.74,0001.71
2021-11-12 06:56:00,,0829.7,5.00,0.00,23.3,22.5,00.0,32.4,25.1,10.5,0000.0,0010.15,0002.75,0001.71
2021-11-12 06:57:00,,0829.8,5.01,0.00,23.3,22.4,00.0,32.4,25.1,10.5,0000.0,0010.30,0002.83,0001.71
2021-11-12 06:58:00,,0829.7,4.99,0.00,23.3,22.4,00.0,32.4,25.0,10.5,0000.0,0010.40,0002.83,0001.71
2021-11-12 06:59:00,,0829.7,5.02,0.00,23.3,22.4,00.0,32.4,25.0,10.5,0000.0,0009.69,0002.80,0001.70
